Regional Weather Roundup
Issued by NWS Green Bay, WI

Home | Current Version | Previous Version | Text Only | Print | Product List | Glossary On
Versions: 1 2 3 4 5 6 7 8 9 10 11 12 13 14 15 16 17 18 19 20 21 22 23 24 25 26 27 28 29 30 31 32 33 34 35 36 37 38 39 40 41 42 43 44 45 46 47 48 49 50
000
ASUS43 KGRB 180411
RWRGRB

NORTH-CENTRAL AND NORTHEAST WISCONSIN REGIONAL WEATHER ROUNDUP
NATIONAL WEATHER SERVICE GREEN BAY WI
1100 PM CDT THU AUG 17 2017

WIZ005-009-010>012-018-019-180500-
NORTH CENTRAL WISCONSIN

CITY           SKY/WX    TMP DP  RH WIND       PRES   REMARKS
IRONWOOD       LGT RAIN  60  59  96 NW7       29.72R
MANITOWISH WTR CLOUDY    59  59 100 NW9       29.71R
ARBOR VITAE    CLOUDY    62  59  90 NW12G25   29.70R
EAGLE RIVER    CLOUDY    60  59  98 NW13      29.67S
LAND O LAKES   LGT RAIN  60  59  97 NW9       29.69S
RHINELANDER    CLOUDY    61  59  93 W10       29.70R
PHILLIPS       CLOUDY    60  60 100 NW6       29.73S FOG
ANTIGO         CLOUDY    60  58  92 NW14G21   29.69R
TOMAHAWK         N/A     59  58  95 W8        29.72S
MERRILL        DRIZZLE   61  61 100 NW3       29.72R
$$

WIZ013-073-180500-
NORTHEAST WISCONSIN

CITY           SKY/WX    TMP DP  RH WIND       PRES   REMARKS
IRON MOUNTAIN  CLOUDY    62  58  86 W16       29.60R
MARINETTE      MOCLDY    68  66  93 W7        29.58R
OCONTO         CLOUDY    67  65  93 W17       29.60R
$$

WIZ017-030-035>037-045-180500-
CENTRAL WISCONSIN

CITY           SKY/WX    TMP DP  RH WIND       PRES   REMARKS
MEDFORD        DRIZZLE   60  60  97 NW5       29.74S
WAUSAU         CLOUDY    63  61  94 NW13      29.70R
MOSINEE        CLOUDY    63  61  94 W12G17    29.73R
MARSHFIELD     CLOUDY    63  60  90 W8        29.74S
WISC RAPIDS    CLOUDY    64  62  93 NW10      29.76R
STEVENS POINT  CLOUDY    63  61  93 W9        29.73R
WAUPACA        CLOUDY    68  61  78 W9        29.70R
SHAWANO        CLOUDY    66  60  82 W12G18    29.65R
CLINTONVILLE   CLOUDY    64  57  77 W14G20    29.67R
WAUTOMA        CLOUDY    64  63  94 W13       29.73S
$$

WIZ038-039-048-051-180500-
FOX VALLEY

CITY           SKY/WX    TMP DP  RH WIND       PRES   REMARKS
NWS GREEN BAY  CLOUDY    66  65  96 W12G22    29.64R
APPLETON       CLOUDY    66  59  77 W14       29.67R
OSHKOSH        CLOUDY    66  61  84 W13       29.69R
FOND DU LAC    CLOUDY    67  59  75 W13       29.71R
$$

WIZ022-050-052-180500-
EAST CENTRAL WISCONSIN

CITY           SKY/WX    TMP DP  RH WIND       PRES   REMARKS
EPHRAIM        CLOUDY    67  66  95 W13G18    29.56R
WASHINGTON ISL CLOUDY    68  67  97 W8        29.53R
STURGEON BAY   CLOUDY    68  66  93 W14G22    29.59R
MANITOWOC      CLOUDY    67  63  87 W14G20    29.65R
SHEBOYGAN      CLOUDY    67  63  87 W14G24    29.67S
$$

LMZ563-521-522-541>543-180500-
LAKESHORE

STATION/POSITION TIME  TEMP    WIND        PRES    VSBY  WAVE
                       AIR SEA DIR/SP/G                  HT/PER
                 (UTC) (F)     (DEG/KT/KT) (MB)    (MI)  (FT/S)
SHEBOYGAN LKSHOR 0400   68     270/ 15/ 19 1004.1R
KEWAUNEE LKSHORE 0348   68     260/ 12/ 18 1002.0R
NORTHPORT PIER   0340   69     270/  6/ 11 1000.0S
N MID LAKE BUOY  0350   69 67  200/ 12/ 16 1000.0F         4/ 6
S GREEN BAY BUOY 0400   69 71  260/ 19/ 27 1002.1
SISTER BAY LKSHO 0318   70     280/ 13/ 16   N/A
MENOMINEE LKSHOR 0348   69     260/  8/ 12 1001.2R
$$



USA.gov is the U.S. government's official web portal to all federal, state and local government web resources and services.